This is the latest recevied weather packets stored in our database for station/object W8CEN. If no packets are shown the sender has not sent any weather packets the latest 10 day(s).
| Time | Temp. | Humidity | Pressure | Rain* | Wind** | Luminosity | Snow |
|---|---|---|---|---|---|---|---|
| 1778085469 | 16.67° C | 40% | 991.4 hPa | 0 mm | - | 905 W/m² | - |
| 1778085164 | 15.56° C | 41% | 991.4 hPa | 0 mm | - | 861 W/m² | - |
| 1778084860 | 16.11° C | 35% | 991.5 hPa | 0 mm | - | 867 W/m² | - |
| 1778084558 | 16.67° C | 40% | 991.5 hPa | 0 mm | - | 861 W/m² | - |
| 1778084255 | 16.67° C | 40% | 991.6 hPa | 0 mm | - | 846 W/m² | - |
| 1778083953 | 16.11° C | 43% | 991.6 hPa | 0 mm | - | 860 W/m² | - |
| 1778083650 | 16.11° C | 38% | 991.6 hPa | 0 mm | - | 852 W/m² | - |
| 1778083346 | 15.56° C | 40% | 991.3 hPa | 0 mm | - | 847 W/m² | - |
| 1778083045 | 16.11° C | 39% | 991.5 hPa | 0 mm | - | 598 W/m² | - |
| 1778082742 | 16.11° C | 41% | 991.4 hPa | 0 mm | - | 841 W/m² | - |
| 1778081604 | 15.56° C | 50% | 991.2 hPa | 0 mm | - | 776 W/m² | - |
| 1778081300 | 15° C | 48% | 991.2 hPa | 0 mm | - | 815 W/m² | - |
| 1778080997 | 15° C | 52% | 991.2 hPa | 0 mm | - | 798 W/m² | - |
| 1778080696 | 14.44° C | 52% | 991.2 hPa | 0 mm | - | 702 W/m² | - |
| 1778080393 | 14.44° C | 47% | 991.1 hPa | 0 mm | - | 580 W/m² | - |
| 1778080089 | 13.89° C | 52% | 990.9 hPa | 0 mm | - | 509 W/m² | - |
| 1778079786 | 14.44° C | 48% | 991 hPa | 0 mm | - | 593 W/m² | - |
| 1778079483 | 13.89° C | 50% | 990.8 hPa | 0 mm | - | 579 W/m² | - |
| 1778079180 | 13.33° C | 49% | 990.9 hPa | 0 mm | - | 631 W/m² | - |
| 1778078877 | 13.89° C | 45% | 990.7 hPa | 0 mm | - | 596 W/m² | - |
| 1778078574 | 13.89° C | 47% | 990.8 hPa | 0 mm | - | 617 W/m² | - |
| 1778078272 | 14.44° C | 56% | 990.8 hPa | 0 mm | - | 594 W/m² | - |
| 1778077969 | 13.89° C | 55% | 990.6 hPa | 0 mm | - | 463 W/m² | - |
| 1778077667 | 14.44° C | 50% | 990.6 hPa | 0 mm | - | 485 W/m² | - |
| 1778077365 | 14.44° C | 55% | 990.7 hPa | 0 mm | - | 588 W/m² | - |
* Rain latest hour (hover to see other rain measurements)
** Current wind speed in m/s (hover to see current wind gust speed)